Location: Roanoke
(37.2710°N, 79.9420°W)
Time: 14:42:43
(UTC-05:00)

Daily predictions for brighter satellites

Satellite Brightness Start Highest point End
(mag) Time Altitude Azimuth Time Altitude Azimuth Time Altitude Azimuth
Cosmos 2285 Rocket 4.1 18:20:10 10° SSW 18:26:29 88° ESE 18:32:54 10° NNE
CENTAUR R/B 3.1 18:24:18 10° S 18:29:26 33° ESE 18:35:08 10° NE
Cosmos 1980 3.8 18:23:54 10° NNW 18:29:32 60° ENE 18:35:08 10° SE
FREGAT/IRIS 4.4 18:29:26 10° ESE 18:31:06 14° ENE 18:32:46 10° NE
EO 1 Del DPAF 3.6 18:29:24 10° NNE 18:33:04 43° E 18:36:42 10° S
Cosmos 2056 Rocket 3.6 18:31:16 10° NNW 18:36:43 78° ENE 18:42:08 10° SSE
SPOT 3 Rocket 3.7 18:33:44 10° SSE 18:38:47 55° ENE 18:43:53 10° N
Meteor 1-27 Rocket 4.3 18:36:27 10° NNW 18:42:18 67° W 18:48:10 10° S
Cosmos 1452 Rocket 4.2 18:38:08 10° N 18:42:54 33° ENE 18:47:36 10° SE
Landsat 4 3.6 18:42:58 10° NNE 18:46:44 87° ESE 18:50:29 10° SSW
ALOS 2.7 18:46:23 10° S 18:51:01 67° WSW 18:55:41 10° NNW
Cosmos 1674 Rocket 3.7 18:47:54 10° N 18:52:08 49° E 18:56:18 10° SSE
Cosmos 158 Rocket 4.0 18:50:14 10° S 18:54:57 49° ESE 18:59:39 10° NNE
Iridium 4 Rocket 3.9 18:52:06 10° NNE 18:56:30 33° E 19:00:33 10° SSE
IUS-18 SRM-1 4.2 18:55:59 10° SSW 18:56:48 11° S 18:57:44 10° SSE
MOS 1 4.5 18:51:16 10° S 18:56:54 78° WSW 19:02:37 10° NNW
Cosmos 1908 Rocket 4.0 18:52:59 10° SSE 18:57:10 40° E 19:01:21 10° NNE
ATLAS 3B R/B 4.4 18:50:51 10° WSW 18:57:13 33° NW 19:03:24 10° NNE
Cosmos 405 3.0 18:54:21 10° S 18:57:50 82° W 19:01:22 10° N
YAOGAN 1 4.3 18:54:17 10° SSW 18:58:16 37° W 19:02:17 10° NNW
Lacrosse 5 2.0 18:53:47 10° NW 18:58:51 78° SW 19:03:53 10° SE
NOAA 12 4.4 18:53:55 10° S 18:59:12 76° WSW 19:04:33 10° NNW
Cosmos 2219 Rocket 3.8 18:54:42 10° NW 18:59:54 38° WSW 19:05:03 10° S
Cosmos 44 3.9 18:55:41 10° NNW 19:00:26 40° NE 19:05:12 11° ESE
SJ-6B 3.6 19:00:28 10° SE 19:03:42 28° ENE 19:07:00 10° NNE
Cosmos 1420 Rocket 4.4 18:59:35 10° N 19:04:36 42° ENE 19:09:36 10° SE
Cosmos 1733 Rocket 3.6 19:00:31 10° SSW 19:04:47 61° W 19:09:04 10° N
SL-8 R/B 3.8 19:01:52 10° WSW 19:06:39 72° NNW 19:10:35 15° NE
Okean 3 3.4 19:04:17 10° N 19:08:25 61° E 19:12:32 10° SSE
Cosmos 921 Rocket 4.2 19:05:18 10° NNE 19:08:57 24° ENE 19:10:05 21° E
Cosmos 2227 Rocket 3.2 19:05:32 10° SW 19:10:58 47° WNW 19:16:26 10° N
Cosmos 2237 Rocket 2.8 19:08:38 10° NNW 19:14:10 61° WSW 19:19:41 10° S
Meteor 1-14 Rocket 4.2 19:09:20 10° S 19:15:04 86° E 19:20:59 10° N
SL-16 R/B 2.3 19:11:50 10° NNW 19:17:25 56° ENE 19:22:56 10° SE
Resurs 01 Rocket 3.1 19:19:14 19° NE 19:19:14 19° NE 19:21:34 10° NNE
Okean 1 3.8 19:15:29 10° N 19:19:13 37° E 19:21:38 18° SE
H-2A R/B 3.2 19:16:21 10° S 19:20:15 67° W 19:24:09 10° NNW
Cosmos 1513 Rocket 4.5 19:16:27 10° N 19:22:46 64° E 19:28:55 10° SSE
Cosmos 2297 Rocket 3.4 19:19:48 10° SW 19:25:07 42° WNW 19:30:30 10° N
Cosmos 1975 Rocket 3.7 19:22:18 10° NNE 19:26:20 33° ENE 19:26:50 33° E
Meteor 1-20 Rocket 4.2 19:22:27 10° S 19:28:07 88° W 19:33:56 10° N
Shenzhou-11 Module 4.3 19:29:22 10° W 19:31:41 20° SW 19:33:13 14° S
CZ-3 Stage 3 3.1 19:29:43 10° WSW 19:33:13 26° SSW 19:34:11 21° SSE
Thor Agena Rocket 3.4 19:28:26 10° NNE 19:33:32 70° ESE 19:38:32 10° S
CZ-2D R/B 3.2 19:32:53 21° SSE 19:35:19 61° ENE 19:39:10 10° N
Envisat 3.0 19:30:23 10° SSE 19:35:19 55° ENE 19:40:17 10° N
Tsikada Rocket 4.1 19:29:53 10° SSE 19:36:06 56° E 19:42:21 10° NNE
SeaSat 1 2.4 19:35:40 26° SE 19:38:20 60° ENE 19:43:12 10° NNW
OAO 2 Rocket 3.5 19:33:44 10° WSW 19:38:32 54° SSE 19:39:55 40° ESE
USA 32 3.9 19:33:26 10° S 19:38:39 84° E 19:43:54 10° N
ERS-2 3.1 19:36:47 10° S 19:40:22 49° W 19:43:57 10° NNW
ARGOS Delta rocket 3.6 19:35:34 10° NNE 19:40:26 72° E 19:45:00 10° S
USA 215 3.4 19:34:23 12° NE 19:40:29 75° NW 19:47:00 10° SW
Cosmos 1812 4.3 19:37:48 10° NNW 19:41:24 37° W 19:44:59 10° SSW
Meteor 1-18 Rocket 4.2 19:35:54 10° N 19:41:31 83° W 19:47:03 10° S
Cosmos 1269 Rocket 3.9 19:36:21 10° S 19:41:35 71° ESE 19:46:52 10° NNE
Cosmos 1633 4.1 19:41:44 10° SSW 19:45:02 36° W 19:48:21 10° N
HJ-1C 3.9 19:42:28 10° S 19:45:50 59° W 19:49:13 10° NNW
Cosmos 1602 3.8 19:45:43 10° S 19:49:00 59° SSE 19:49:00 59° SSE
CZ-3C R/B 4.0 19:47:10 10° SSW 19:51:15 20° SE 19:52:23 20° SE
Cosmos 1378 Rocket 4.2 19:46:56 10° NNW 19:51:16 57° W 19:55:35 10° S
Sich 1 Rocket 4.1 19:46:55 10° SSW 19:51:23 62° W 19:55:50 10° N
Cosmos 1782 Rocket 3.7 19:50:14 10° S 19:54:41 77° W 19:59:07 10° N
COSMOS 2455 3.9 19:50:23 10° S 19:53:36 27° SSE 19:53:36 27° SSE
Cosmos 1464 Rocket 4.5 19:50:21 10° NNW 19:56:22 60° W 20:02:21 10° S
Meteor 1-11 Rocket 4.0 19:52:19 10° SSE 20:01:39 18° NNE 20:03:08 10° NNE
Meteor 1-19 Rocket 4.1 19:53:03 10° N 19:58:32 63° E 19:59:39 51° SE
Cosmos 1437 Rocket 3.3 19:57:34 10° SSW 20:01:32 60° W 20:05:36 10° N
Tiangong 2 2.8 19:59:38 10° WNW 20:01:40 34° W 20:01:40 34° W
Gbstr 26 Del rocket 4.0 20:00:10 10° SW 20:02:15 31° SSW 20:02:15 31° SSW
OAO 1 4.4 19:59:07 10° W 20:04:37 71° S 20:05:13 64° SE
Meteor 2-4 Rocket 4.2 20:00:21 10° N 20:04:43 42° NE 20:04:43 42° NE
Cosmos 44 Rocket 3.5 20:01:25 10° NW 20:06:28 71° WSW 20:07:57 45° S
Cosmos 2227 4.1 20:05:34 10° SSW 20:11:18 89° ESE 20:13:31 40° NNE
USA 267 3.9 20:11:38 37° NE 20:12:06 37° NNE 20:18:01 10° NNW
CENTAUR R/B 3.6 20:14:13 10° WSW 20:19:51 40° NW 20:26:15 10° NNE
Spot 2 Rocket 4.3 20:27:14 41° N 20:27:14 41° N 20:30:30 10° NNW
CZ-4C R/B 3.9 20:45:23 10° NNW 20:49:51 34° NNE 20:49:51 34° NNE
Resurs 01 Rocket 4.0 20:56:48 20° NW 20:56:48 20° NW 20:58:30 10° NNW
